GW3140 Weather Reports


Display with metric or nautical units.
time (UTC)temp
F
wind
direction
speed
MPH
gust
MPH
rain 1hr
in
rain 24hr
in
rain mn
in
humidity
%
barometer
mb
20260510214012 54 274 2.0 7.0 0.00 0.00 0.00 38 1018.5
20260510213511 54 304 2.0 7.0 0.00 0.00 0.00 37 1018.4
20260510213041 55 316 2.0 7.0 0.00 0.00 0.00 36 1018.4
20260510212515 55 262 1.0 6.0 0.00 0.00 0.00 37 1018.4
20260510212017 55 266 1.0 6.0 0.00 0.00 0.00 35 1018.5
20260510211532 55 348 1.0 6.0 0.00 0.00 0.00 37 1018.4
20260510211012 54 268 2.0 7.0 0.00 0.00 0.00 39 1018.5
20260510210512 54 320 2.0 7.0 0.00 0.00 0.00 39 1018.5
20260510210044 54 270 2.0 6.0 0.00 0.00 0.00 41 1018.6
20260510205514 54 278 1.0 6.0 0.00 0.03 0.00 40 1018.7
20260510205012 54 270 2.0 9.0 0.00 0.03 0.00 37 1018.7
20260510204539 54 281 2.0 9.0 0.00 0.03 0.00 38 1018.7
20260510204012 54 284 3.0 9.0 0.00 0.03 0.00 39 1018.7
20260510203511 54 245 2.0 7.0 0.00 0.03 0.00 39 1018.7
20260510203035 55 293 2.0 7.0 0.00 0.03 0.00 38 1018.7
20260510202514 55 284 2.0 8.0 0.00 0.03 0.00 40 1018.7
20260510202012 55 253 3.0 8.0 0.00 0.03 0.00 41 1018.7
20260510201532 56 0 0.0 7.0 0.00 0.03 0.00 36 1018.7
20260510201016 57 263 1.0 7.0 0.00 0.03 0.00 38 1018.6
20260510200511 56 303 3.0 10.0 0.00 0.03 0.00 43 1018.7
20260510200030 56 307 2.0 10.0 0.00 0.03 0.00 41 1018.8
20260510195513 56 268 3.0 10.0 0.00 0.26 0.00 44 1018.8
20260510195011 55 254 3.0 10.0 0.00 0.26 0.00 40 1018.8
20260510194533 55 273 2.0 6.0 0.00 0.26 0.00 43 1018.8
20260510194016 55 270 1.0 8.0 0.00 0.26 0.00 40 1018.8
20260510193513 55 343 2.0 8.0 0.00 0.26 0.00 43 1018.9
20260510193027 55 269 2.0 11.0 0.00 0.26 0.00 39 1018.9
20260510192515 55 275 2.0 11.0 0.00 0.26 0.00 41 1018.9
20260510192013 54 264 2.0 12.0 0.00 0.26 0.00 48 1018.9
20260510191536 54 277 2.0 12.0 0.00 0.26 0.00 42 1018.9
20260510191014 55 264 5.0 12.0 0.00 0.26 0.00 39 1018.8
20260510190513 55 299 2.0 10.0 0.00 0.26 0.00 45 1018.7
20260510190035 55 233 4.0 9.0 0.00 0.26 0.00 44 1018.7
20260510185511 55 251 3.0 9.0 0.00 0.26 0.00 43 1018.6
20260510185012 55 277 3.0 9.0 0.00 0.26 0.00 44 1018.6
20260510184535 54 235 3.0 9.0 0.00 0.26 0.00 48 1018.6
20260510184010 54 319 4.0 9.0 0.00 0.26 0.00 42 1018.6
20260510183511 54 351 1.0 8.0 0.00 0.26 0.00 47 1018.5
20260510183031 54 312 1.0 8.0 0.00 0.26 0.00 46 1018.5
20260510182512 54 278 4.0 8.0 0.00 0.26 0.00 44 1018.4
20260510182010 54 318 2.0 8.0 0.00 0.26 0.00 47 1018.4
20260510181558 54 318 2.0 7.0 0.00 0.26 0.00 47 1018.3
20260510181013 54 287 2.0 7.0 0.00 0.26 0.00 51 1018.4
20260510180513 54 0 2.0 8.0 0.00 0.26 0.00 46 1018.3
20260510180039 54 251 1.0 8.0 0.00 0.26 0.00 52 1018.3
20260510175513 53 283 3.0 11.0 0.00 0.26 0.00 50 1018.4
20260510175012 53 271 2.0 11.0 0.00 0.26 0.00 52 1018.3
20260510174550 53 2 3.0 11.0 0.00 0.26 0.00 48 1018.3
20260510174013 53 309 3.0 8.0 0.00 0.26 0.00 48 1018.4
20260510173512 53 299 2.0 8.0 0.00 0.26 0.00 51 1018.4
20260510173030 52 213 2.0 9.0 0.00 0.26 0.00 51 1018.3
20260510172512 52 271 3.0 9.0 0.00 0.26 0.00 52 1018.5
20260510172011 52 281 3.0 9.0 0.00 0.26 0.00 49 1018.5
20260510171530 52 271 3.0 10.0 0.00 0.26 0.00 51 1018.6
20260510171013 52 310 3.0 10.0 0.00 0.26 0.00 51 1018.5
20260510170512 52 282 3.0 10.0 0.00 0.26 0.00 51 1018.6
20260510170029 52 267 2.0 9.0 0.00 0.26 0.00 50 1018.5
20260510165513 52 293 2.0 9.0 0.00 0.26 0.00 52 1018.4
20260510165012 52 299 3.0 9.0 0.00 0.26 0.00 53 1018.5
20260510164534 52 247 3.0 8.0 0.00 0.26 0.00 50 1018.3
20260510164011 52 323 3.0 8.0 0.00 0.26 0.00 52 1018.4
20260510163512 52 302 2.0 7.0 0.00 0.26 0.00 50 1018.2
20260510163030 52 292 2.0 9.0 0.00 0.26 0.00 50 1018.1
20260510162513 51 266 2.0 9.0 0.00 0.26 0.00 49 1018.1
20260510162012 51 341 1.0 8.0 0.00 0.26 0.00 52 1018.1
20260510161533 51 343 3.0 9.0 0.00 0.26 0.00 49 1018.1
20260510161013 51 278 3.0 9.0 0.00 0.26 0.00 48 1018.1
20260510160511 50 319 2.0 10.0 0.00 0.26 0.00 49 1018.1
20260510160038 51 330 3.0 10.0 0.00 0.26 0.00 47 1018.0
20260510155513 51 339 2.0 9.0 0.00 0.26 0.00 48 1018.1
20260510155012 51 309 3.0 9.0 0.00 0.26 0.00 48 1018.0
20260510154529 51 298 2.0 8.0 0.00 0.26 0.00 50 1018.0
20260510154011 51 323 3.0 8.0 0.00 0.26 0.00 50 1017.9
20260510153511 51 329 3.0 10.0 0.00 0.26 0.00 51 1018.0
20260510153032 50 346 3.0 10.0 0.00 0.26 0.00 50 1018.0
20260510152511 50 281 4.0 10.0 0.00 0.26 0.00 47 1017.8
20260510152013 51 316 2.0 9.0 0.00 0.26 0.00 49 1017.8
20260510151531 50 321 2.0 10.0 0.00 0.26 0.00 47 1017.8
20260510151018 50 293 3.0 10.0 0.00 0.26 0.00 48 1017.8
20260510150515 50 279 3.0 8.0 0.00 0.26 0.00 47 1017.6
20260510150032 50 276 3.0 9.0 0.00 0.26 0.00 48 1017.6
20260510145510 50 287 3.0 9.0 0.00 0.26 0.00 48 1017.5
20260510145013 50 278 2.0 8.0 0.00 0.26 0.00 47 1017.5
20260510144533 50 314 3.0 9.0 0.00 0.26 0.00 50 1017.4
20260510144011 50 267 3.0 9.0 0.00 0.26 0.00 48 1017.3
20260510143513 50 281 3.0 9.0 0.00 0.26 0.00 50 1017.2
20260510143031 49 278 3.0 9.0 0.00 0.26 0.00 47 1017.0
20260510142513 49 344 3.0 8.0 0.00 0.26 0.00 49 1016.9
20260510142014 49 282 2.0 8.0 0.00 0.26 0.00 48 1016.8
20260510141535 49 269 2.0 8.0 0.00 0.26 0.00 53 1016.8
20260510141012 49 266 2.0 8.0 0.00 0.26 0.00 48 1016.7
20260510140512 49 273 2.0 7.0 0.00 0.26 0.00 54 1016.7
20260510140032 48 264 1.0 7.0 0.00 0.26 0.00 54 1016.6
20260510135512 48 293 2.0 8.0 0.00 0.26 0.00 50 1016.6
20260510135011 48 292 1.0 8.0 0.00 0.26 0.00 53 1016.5
20260510134530 48 330 2.0 7.0 0.00 0.26 0.00 55 1016.4
20260510134010 48 276 2.0 7.0 0.00 0.26 0.00 57 1016.2
20260510133517 48 325 2.0 6.0 0.00 0.26 0.00 60 1016.3
20260510133031 47 325 2.0 5.0 0.00 0.26 0.00 59 1016.3
20260510132511 47 335 3.0 5.0 0.00 0.26 0.00 57 1016.3
20260510132014 47 314 2.0 7.0 0.00 0.26 0.00 58 1016.3
20260510131531 47 290 1.0 7.0 0.00 0.26 0.00 61 1016.2
20260510131012 46 260 1.0 6.0 0.00 0.26 0.00 63 1016.3
20260510130510 46 309 2.0 6.0 0.00 0.26 0.00 65 1016.2
20260510130029 46 282 2.0 6.0 0.00 0.26 0.00 66 1016.2
20260510125510 45 271 2.0 8.0 0.00 0.26 0.00 67 1016.1
20260510125013 45 322 2.0 8.0 0.00 0.26 0.00 71 1016.1
20260510124532 45 283 3.0 8.0 0.00 0.26 0.00 70 1016.0
20260510124014 44 284 1.0 6.0 0.00 0.26 0.00 71 1016.0
20260510123510 44 323 2.0 6.0 0.00 0.26 0.00 71 1015.9
20260510123032 44 272 2.0 6.0 0.00 0.26 0.00 73 1015.8
20260510122513 43 323 2.0 5.0 0.00 0.26 0.00 74 1015.8
20260510122011 43 329 2.0 5.0 0.00 0.26 0.00 75 1015.8
20260510121531 43 285 1.0 3.0 0.00 0.26 0.00 75 1015.8
20260510121015 42 0 0.0 3.0 0.00 0.26 0.00 77 1015.7
20260510120514 42 0 0.0 0.0 0.00 0.26 0.00 79 1015.8
20260510120034 41 0 0.0 0.0 0.00 0.26 0.00 80 1015.6
20260510115514 41 0 0.0 0.0 0.00 0.26 0.00 80 1015.6
20260510115011 40 0 0.0 0.0 0.00 0.26 0.00 80 1015.5
20260510114531 40 0 0.0 2.0 0.00 0.26 0.00 81 1015.5
20260510114013 39 0 0.0 2.0 0.00 0.26 0.00 83 1015.4
20260510113513 38 288 0.0 2.0 0.00 0.26 0.00 85 1015.3
20260510113028 37 0 0.0 2.0 0.00 0.26 0.00 87 1015.2
20260510112510 37 0 0.0 2.0 0.00 0.26 0.00 88 1015.1
20260510112015 36 0 0.0 2.0 0.00 0.26 0.00 89 1015.1
20260510111532 36 0 0.0 0.0 0.00 0.26 0.00 89 1015.0
20260510111013 36 0 0.0 0.0 0.00 0.26 0.00 88 1014.9
20260510110517 36 0 0.0 0.0 0.00 0.26 0.00 88 1014.8
20260510110034 36 0 0.0 0.0 0.00 0.26 0.00 88 1014.8
20260510105512 36 0 0.0 0.0 0.00 0.26 0.00 88 1014.6
20260510105013 36 0 0.0 0.0 0.00 0.26 0.00 88 1014.6
20260510104530 36 0 0.0 0.0 0.00 0.26 0.00 88 1014.6
20260510104015 35 0 0.0 0.0 0.00 0.26 0.00 88 1014.5
20260510103512 35 0 0.0 0.0 0.00 0.26 0.00 88 1014.3
20260510103029 35 0 0.0 0.0 0.00 0.26 0.00 89 1014.4
20260510102513 35 0 0.0 0.0 0.00 0.26 0.00 89 1014.2
20260510102014 34 0 0.0 0.0 0.00 0.26 0.00 90 1014.2
20260510101530 34 0 0.0 0.0 0.00 0.26 0.00 89 1014.0
20260510101013 34 0 0.0 0.0 0.00 0.26 0.00 89 1014.0
20260510100513 34 0 0.0 0.0 0.00 0.26 0.00 89 1013.9
20260510100043 34 0 0.0 0.0 0.00 0.26 0.00 89 1013.8
20260510095513 34 0 0.0 0.0 0.00 0.26 0.00 88 1013.8
20260510095012 34 0 0.0 0.0 0.00 0.26 0.00 88 1013.7
20260510094532 34 0 0.0 0.0 0.00 0.26 0.00 88 1013.5
20260510094012 34 0 0.0 0.0 0.00 0.26 0.00 87 1013.4
20260510093514 34 0 0.0 0.0 0.00 0.26 0.00 87 1013.3
20260510093040 34 0 0.0 0.0 0.00 0.26 0.00 87 1013.2
20260510092514 35 0 0.0 0.0 0.00 0.26 0.00 87 1013.2
20260510092013 35 0 0.0 0.0 0.00 0.26 0.00 87 1013.0
20260510091532 35 0 0.0 0.0 0.00 0.26 0.00 86 1012.9
20260510091013 35 0 0.0 0.0 0.00 0.26 0.00 86 1012.9
20260510090513 35 0 0.0 0.0 0.00 0.26 0.00 86 1012.6
20260510090035 35 0 0.0 0.0 0.00 0.26 0.00 86 1012.5
20260510085512 35 0 0.0 0.0 0.00 0.26 0.00 86 1012.5
20260510085016 35 0 0.0 0.0 0.00 0.26 0.00 85 1012.4
20260510084534 35 0 0.0 0.0 0.00 0.26 0.00 85 1012.3
20260510084014 36 0 0.0 0.0 0.00 0.26 0.00 85 1012.2
20260510083514 36 0 0.0 0.0 0.00 0.26 0.00 84 1012.1
20260510083033 36 0 0.0 0.0 0.00 0.26 0.00 84 1012.0
20260510082512 36 0 0.0 0.0 0.00 0.26 0.00 84 1012.0
20260510082012 36 0 0.0 0.0 0.00 0.26 0.00 83 1011.9
20260510081529 37 0 0.0 0.0 0.00 0.26 0.00 83 1011.9
20260510081013 37 0 0.0 0.0 0.00 0.26 0.00 84 1011.8
20260510080514 37 0 0.0 0.0 0.00 0.26 0.00 83 1011.9
20260510080031 37 0 0.0 0.0 0.00 0.26 0.00 83 1011.8
20260510075514 37 0 0.0 0.0 0.00 0.26 0.00 83 1011.8
20260510075013 38 0 0.0 0.0 0.00 0.26 0.00 82 1011.7
20260510074530 38 0 0.0 0.0 0.00 0.26 0.00 81 1011.7
20260510074013 38 0 0.0 0.0 0.00 0.26 0.00 79 1011.6
20260510073514 38 0 0.0 0.0 0.00 0.26 0.00 78 1011.5
20260510073030 38 0 0.0 0.0 0.00 0.26 0.00 78 1011.4
20260510072513 39 0 0.0 0.0 0.00 0.26 0.00 78 1011.4
20260510072016 39 0 0.0 0.0 0.00 0.26 0.00 78 1011.4
20260510071538 39 0 0.0 0.0 0.00 0.26 0.00 77 1011.3
20260510071012 40 0 0.0 0.0 0.00 0.26 0.00 77 1011.3
20260510070516 40 0 0.0 0.0 0.00 0.26 0.00 78 1011.2
20260510070031 40 0 0.0 0.0 0.00 0.26 0.00 75 1011.2
20260510065514 40 0 0.0 0.0 0.00 0.26 0.00 75 1011.2
20260510065013 41 0 0.0 0.0 0.00 0.26 0.00 74 1011.1
20260510064530 41 0 0.0 1.0 0.00 0.26 0.00 74 1011.2
20260510064012 41 0 0.0 1.0 0.00 0.26 0.00 74 1011.2
20260510063516 41 0 0.0 2.0 0.00 0.26 0.00 73 1011.2
20260510063029 41 0 0.0 2.0 0.00 0.26 0.00 75 1011.2
20260510062511 41 0 0.0 2.0 0.00 0.26 0.00 73 1011.1
20260510062014 42 0 0.0 2.0 0.00 0.26 0.00 74 1011.1
20260510061539 42 0 0.0 2.0 0.00 0.26 0.00 73 1011.1
20260510061013 42 327 0.0 2.0 0.00 0.26 0.00 74 1011.0
20260510060515 42 0 0.0 2.0 0.00 0.26 0.00 74 1011.0
20260510060030 42 0 0.0 0.0 0.00 0.26 0.00 73 1011.0
20260510055512 42 0 0.0 0.0 0.00 0.26 0.00 74 1011.1
20260510055011 43 0 0.0 1.0 0.00 0.26 0.00 74 1011.0
20260510054532 43 0 0.0 2.0 0.00 0.26 0.00 73 1011.0
20260510054014 43 0 0.0 2.0 0.00 0.26 0.00 71 1010.9
20260510053514 43 329 0.0 2.0 0.00 0.26 0.00 71 1010.8
20260510053031 44 337 0.0 2.0 0.00 0.26 0.00 71 1010.6
20260510052517 44 0 0.0 2.0 0.00 0.26 0.00 70 1010.5
20260510052011 44 342 0.0 3.0 0.00 0.26 0.00 70 1010.5
20260510051532 44 342 0.0 4.0 0.00 0.26 0.00 69 1010.5
20260510051011 45 342 0.0 4.0 0.00 0.26 0.00 69 1010.3
20260510050512 45 341 1.0 4.0 0.00 0.26 0.00 68 1010.2
20260510050029 45 336 1.0 4.0 0.00 0.26 0.00 67 1010.2
20260510045512 45 337 1.0 5.0 0.00 0.26 0.00 67 1010.0
20260510045013 46 333 2.0 5.0 0.00 0.26 0.00 66 1010.0
20260510044530 46 322 1.0 5.0 0.00 0.26 0.00 66 1009.9
20260510044011 46 328 1.0 4.0 0.00 0.26 0.00 67 1009.8
20260510043512 46 328 1.0 4.0 0.00 0.26 0.00 66 1009.7
20260510043034 46 294 0.0 2.0 0.00 0.26 0.00 68 1009.6
20260510042513 46 0 0.0 2.0 0.00 0.26 0.00 68 1009.6
20260510042012 47 0 0.0 4.0 0.00 0.26 0.00 67 1009.5
20260510041531 47 336 1.0 4.0 0.00 0.26 0.00 67 1009.3
20260510041011 47 352 0.0 4.0 0.00 0.26 0.00 67 1009.3
20260510040512 47 0 1.0 3.0 0.00 0.26 0.00 68 1009.3
20260510040031 47 329 0.0 2.0 0.00 0.26 0.00 67 1009.2
20260510035511 47 0 0.0 2.0 0.00 0.26 0.26 68 1009.0
20260510035011 48 0 0.0 2.0 0.00 0.26 0.26 68 1009.3
20260510034530 48 345 0.0 2.0 0.00 0.26 0.26 67 1009.2
20260510034011 48 351 0.0 2.0 0.00 0.26 0.26 67 1008.9
20260510033512 48 0 0.0 2.0 0.00 0.26 0.26 67 1008.9
20260510033031 48 353 0.0 2.0 0.00 0.26 0.26 66 1008.6
20260510032513 49 355 0.0 2.0 0.00 0.26 0.26 68 1008.5
20260510032015 49 337 0.0 4.0 0.00 0.26 0.26 65 1008.7
20260510031542 49 331 1.0 4.0 0.00 0.26 0.26 65 1008.9
20260510031011 49 341 0.0 4.0 0.00 0.26 0.26 67 1008.5
20260510030513 49 14 1.0 4.0 0.00 0.26 0.26 64 1008.6
20260510030030 50 0 0.0 4.0 0.00 0.26 0.26 66 1009.1
20260510025515 50 304 0.0 3.0 0.00 0.26 0.26 65 1008.7
20260510025013 50 9 1.0 3.0 0.00 0.26 0.26 65 1007.7
20260510024541 50 346 1.0 3.0 0.00 0.26 0.26 65 1007.8
20260510024013 50 335 1.0 3.0 0.00 0.26 0.26 64 1008.0
20260510023513 50 0 1.0 3.0 0.00 0.26 0.26 63 1007.8
20260510023029 50 335 1.0 3.0 0.00 0.26 0.26 66 1007.6
20260510022514 51 342 1.0 3.0 0.00 0.26 0.26 64 1007.6
20260510022011 51 2 1.0 4.0 0.00 0.26 0.26 64 1007.5
20260510021530 51 351 1.0 4.0 0.00 0.26 0.26 65 1007.4
20260510021011 51 0 0.0 3.0 0.00 0.26 0.26 64 1007.4
20260510020514 51 0 1.0 3.0 0.00 0.26 0.26 64 1007.2
20260510020032 51 3 1.0 3.0 0.00 0.26 0.26 63 1006.9
20260510015512 51 328 1.0 4.0 0.00 0.26 0.26 63 1006.8
20260510015012 52 351 1.0 4.0 0.00 0.26 0.26 64 1006.7
20260510014534 52 359 1.0 4.0 0.00 0.26 0.26 63 1006.5
20260510014013 52 320 1.0 5.0 0.00 0.26 0.26 62 1006.8
20260510013514 52 337 2.0 5.0 0.00 0.26 0.26 63 1006.7
20260510013029 52 322 1.0 6.0 0.00 0.26 0.26 64 1006.6
20260510012513 52 342 3.0 6.0 0.00 0.26 0.26 63 1006.5
20260510012011 52 334 2.0 6.0 0.00 0.26 0.26 64 1006.4
20260510011542 53 338 2.0 6.0 0.00 0.26 0.26 63 1006.2
20260510011011 53 332 2.0 8.0 0.00 0.26 0.26 63 1006.0
20260510010513 53 343 3.0 8.0 0.00 0.26 0.26 62 1005.9
20260510010031 54 344 2.0 6.0 0.00 0.26 0.26 63 1005.9
20260510005514 54 272 2.0 6.0 0.00 0.26 0.26 63 1005.8
20260510005013 54 333 2.0 7.0 0.00 0.26 0.26 63 1005.8
20260510004533 55 265 2.0 7.0 0.00 0.26 0.26 63 1005.8
20260510004013 55 278 0.0 3.0 0.00 0.26 0.26 66 1005.5
20260510003512 55 330 0.0 2.0 0.00 0.26 0.26 65 1005.4
20260510003056 56 0 0.0 3.0 0.00 0.26 0.26 65 1005.2
20260510002516 56 253 1.0 3.0 0.00 0.26 0.26 66 1005.0
20260510002013 56 0 0.0 1.0 0.00 0.26 0.26 64 1004.9
20260510001531 57 0 0.0 2.0 0.00 0.26 0.26 63 1004.9
20260510001012 57 0 0.0 2.0 0.00 0.26 0.26 63 1004.7
20260510000513 57 310 0.0 4.0 0.00 0.26 0.26 61 1004.7
20260510000031 57 318 1.0 4.0 0.00 0.26 0.26 61 1004.6
20260509235512 58 341 1.0 4.0 0.00 0.26 0.26 60 1004.5
20260509235010 58 334 1.0 4.0 0.00 0.26 0.26 59 1004.4
20260509234530 59 337 1.0 6.0 0.00 0.26 0.26 59 1004.3
20260509234013 59 351 1.0 6.0 0.00 0.26 0.26 57 1004.1
20260509233513 60 328 2.0 6.0 0.00 0.26 0.26 57 1004.0
20260509233031 61 342 3.0 6.0 0.00 0.26 0.26 55 1003.8
20260509232512 62 351 1.0 8.0 0.00 0.26 0.26 58 1003.6
20260509232013 62 274 2.0 8.0 0.00 0.26 0.26 54 1003.5
20260509231540 63 272 3.0 7.0 0.00 0.26 0.26 55 1003.5
20260509231017 63 264 2.0 13.0 0.00 0.26 0.26 55 1003.4
20260509230511 63 251 4.0 14.0 0.00 0.26 0.26 53 1003.4
20260509230034 63 266 5.0 14.0 0.00 0.26 0.26 53 1003.3
20260509225512 63 279 2.0 10.0 0.00 0.26 0.26 60 1003.2
20260509225012 62 276 3.0 10.0 0.00 0.26 0.26 66 1003.1
20260509224534 62 296 0.0 4.0 0.00 0.26 0.26 69 1003.1
20260509224013 62 0 0.0 4.0 0.00 0.26 0.26 67 1002.9
20260509223512 62 0 0.0 6.0 0.00 0.26 0.26 68 1002.9
20260509223030 62 0 0.0 6.0 0.00 0.26 0.26 69 1002.9
20260509222513 62 252 1.0 6.0 0.00 0.26 0.26 67 1002.7
20260509222014 62 289 0.0 6.0 0.00 0.26 0.26 70 1002.7
20260509221529 61 0 0.0 3.0 0.00 0.26 0.26 71 1002.7
20260509221010 61 0 0.0 3.0 0.00 0.26 0.26 70 1002.5
20260509220512 61 0 0.0 3.0 0.00 0.26 0.26 72 1002.6
20260509220032 60 0 0.0 3.0 0.00 0.26 0.26 72 1002.5
20260509215514 60 0 0.0 3.0 0.00 0.26 0.26 72 1002.4
20260509215013 60 0 0.0 3.0 0.00 0.26 0.26 74 1002.3
20260509214532 60 0 1.0 5.0 0.00 0.26 0.26 76 1002.3